UAL1406 KEWR-KBNA

Flight info

Callsign UAL1406
Flight time 1h 42m
Altitude 32000
Route PARKE J6 KAYNE/N0453F360 J6 LRP/N0449F320 J6 MRB/N0450F380 J6 HVQ Q68 YOCKY CUTRR PASLY5
Aircraft B739/M-SDE2E3FGHIRWXY/LB1

Departure

Time 2026-04-24 19:20
Airport Newark Liberty International Airport (KEWR)

Arrival

Time 2026-04-24 21:02
Airport Nashville International Airport (KBNA)
Time Latitude Longitude Altitude Speed Heading
2026-04-24 18:54 40.69607 -74.17354 21 ft 0 kts 142°
2026-04-24 19:09 40.69611 -74.17359 21 ft 4 kts 142°
2026-04-24 19:10 40.69628 -74.17376 22 ft 4 kts 142°
2026-04-24 19:10 40.69648 -74.17399 21 ft 4 kts 130°
2026-04-24 19:10 40.69663 -74.17424 23 ft 4 kts 99°
2026-04-24 19:10 40.69656 -74.17448 22 ft 3 kts 41°
2026-04-24 19:11 40.69640 -74.17466 23 ft 0 kts 41°
2026-04-24 19:13 40.69676 -74.17425 23 ft 15 kts 40°
2026-04-24 19:13 40.69771 -74.17321 21 ft 18 kts 41°
2026-04-24 19:13 40.69829 -74.17191 23 ft 18 kts 115°
2026-04-24 19:14 40.69738 -74.17089 21 ft 17 kts 147°
2026-04-24 19:14 40.69634 -74.17021 23 ft 16 kts 160°
2026-04-24 19:14 40.69526 -74.16984 23 ft 16 kts 170°
2026-04-24 19:14 40.69419 -74.16970 21 ft 15 kts 180°
2026-04-24 19:15 40.69313 -74.16988 21 ft 17 kts 194°
2026-04-24 19:15 40.69203 -74.17046 21 ft 17 kts 206°
2026-04-24 19:15 40.69098 -74.17113 21 ft 16 kts 206°
2026-04-24 19:15 40.68990 -74.17181 21 ft 19 kts 206°
2026-04-24 19:16 40.68729 -74.17347 22 ft 21 kts 206°
2026-04-24 19:16 40.68598 -74.17430 22 ft 20 kts 206°
2026-04-24 19:16 40.68472 -74.17510 22 ft 20 kts 205°
2026-04-24 19:17 40.68349 -74.17586 22 ft 19 kts 206°
2026-04-24 19:17 40.68231 -74.17663 21 ft 19 kts 206°
2026-04-24 19:17 40.68117 -74.17737 21 ft 18 kts 206°
2026-04-24 19:17 40.68006 -74.17807 21 ft 17 kts 206°
2026-04-24 19:18 40.67900 -74.17876 21 ft 17 kts 206°
2026-04-24 19:18 40.67796 -74.17940 21 ft 16 kts 205°
2026-04-24 19:18 40.67697 -74.18003 21 ft 15 kts 205°
2026-04-24 19:18 40.67606 -74.18034 21 ft 10 kts 163°
2026-04-24 19:19 40.67575 -74.17992 22 ft 6 kts 117°
2026-04-24 19:19 40.67577 -74.17939 22 ft 6 kts 63°
2026-04-24 19:19 40.67607 -74.17904 23 ft 6 kts 30°
2026-04-24 19:19 40.67660 -74.17868 21 ft 23 kts 26°
2026-04-24 19:20 40.68080 -74.17602 20 ft 110 kts 26°
2026-04-24 19:20 40.68993 -74.17015 28 ft 179 kts 29°
2026-04-24 19:20 40.70227 -74.16234 466 ft 208 kts 27°
2026-04-24 19:20 40.71578 -74.15285 1096 ft 232 kts 36°
2026-04-24 19:21 40.72783 -74.13715 1611 ft 259 kts 50°
2026-04-24 19:21 40.73900 -74.11838 2502 ft 256 kts 50°
2026-04-24 19:21 40.75207 -74.10169 2956 ft 271 kts 31°
2026-04-24 19:21 40.76983 -74.09253 3681 ft 274 kts
2026-04-24 19:22 40.78213 -74.09318 4563 ft 264 kts 345°
2026-04-24 19:22 40.80250 -74.11070 5594 ft 274 kts 306°
2026-04-24 19:22 40.81117 -74.13311 6584 ft 272 kts 292°
2026-04-24 19:22 40.81657 -74.15684 7544 ft 264 kts 288°
2026-04-24 19:23 40.82071 -74.17955 8128 ft 253 kts 286°
2026-04-24 19:23 40.82380 -74.20297 8261 ft 261 kts 283°
2026-04-24 19:23 40.82574 -74.22753 8504 ft 286 kts 280°
2026-04-24 19:23 40.82644 -74.25459 9162 ft 294 kts 272°
2026-04-24 19:24 40.82346 -74.28051 10656 ft 278 kts 268°
2026-04-24 19:24 40.82022 -74.30568 11441 ft 284 kts 269°
2026-04-24 19:24 40.81616 -74.33250 11602 ft 311 kts 265°
2026-04-24 19:24 40.81108 -74.36119 11822 ft 330 kts 264°
2026-04-24 19:25 40.80558 -74.39124 12283 ft 341 kts 263°
2026-04-24 19:25 40.79994 -74.42184 13008 ft 344 kts 263°
2026-04-24 19:25 40.79432 -74.45264 13756 ft 346 kts 263°
2026-04-24 19:25 40.78874 -74.48364 14405 ft 349 kts 263°
2026-04-24 19:26 40.78315 -74.51496 15060 ft 352 kts 263°
2026-04-24 19:26 40.77755 -74.54648 15701 ft 354 kts 263°
2026-04-24 19:26 40.77193 -74.57830 16349 ft 357 kts 263°
2026-04-24 19:26 40.76626 -74.61036 16980 ft 360 kts 263°
2026-04-24 19:27 40.76055 -74.64264 17621 ft 363 kts 263°
2026-04-24 19:27 40.75479 -74.67522 18193 ft 367 kts 263°
2026-04-24 19:27 40.74896 -74.70811 18671 ft 370 kts 263°
2026-04-24 19:27 40.74305 -74.74136 19197 ft 374 kts 263°
2026-04-24 19:28 40.73710 -74.77480 19720 ft 377 kts 263°
2026-04-24 19:28 40.73108 -74.80856 20235 ft 380 kts 263°
2026-04-24 19:28 40.72498 -74.84268 20738 ft 384 kts 263°
2026-04-24 19:28 40.71883 -74.87709 21234 ft 387 kts 263°
2026-04-24 19:29 40.70633 -74.94670 22233 ft 394 kts 263°
2026-04-24 19:29 40.70000 -74.98190 22722 ft 397 kts 263°
2026-04-24 19:29 40.69360 -75.01746 23203 ft 400 kts 263°
2026-04-24 19:30 40.68696 -75.05330 23630 ft 405 kts 260°
2026-04-24 19:30 40.67735 -75.08805 24010 ft 415 kts 251°
2026-04-24 19:30 40.66327 -75.12170 24450 ft 422 kts 245°
2026-04-24 19:30 40.64789 -75.15481 24844 ft 425 kts 245°
2026-04-24 19:31 40.63236 -75.18807 25208 ft 429 kts 245°
2026-04-24 19:31 40.61676 -75.22172 25578 ft 432 kts 246°
2026-04-24 19:31 40.60114 -75.25562 25947 ft 434 kts 246°
2026-04-24 19:31 40.58554 -75.28966 26353 ft 436 kts 246°
2026-04-24 19:32 40.56985 -75.32395 26725 ft 439 kts 246°
2026-04-24 19:32 40.55401 -75.35856 27097 ft 442 kts 246°
2026-04-24 19:32 40.53810 -75.39328 27445 ft 445 kts 246°
2026-04-24 19:32 40.52748 -75.41640 27677 ft 447 kts 246°
2026-04-24 19:33 40.51137 -75.45146 27992 ft 450 kts 246°
2026-04-24 19:33 40.49510 -75.48685 28276 ft 454 kts 246°
2026-04-24 19:33 40.47870 -75.52247 28599 ft 457 kts 246°
2026-04-24 19:33 40.46221 -75.55824 29005 ft 457 kts 246°
2026-04-24 19:34 40.44575 -75.59390 29500 ft 456 kts 246°
2026-04-24 19:34 40.42931 -75.62945 29967 ft 455 kts 246°
2026-04-24 19:34 40.41290 -75.66498 30351 ft 455 kts 246°
2026-04-24 19:34 40.39651 -75.70046 30769 ft 454 kts 246°
2026-04-24 19:35 40.38018 -75.73580 31245 ft 451 kts 246°
2026-04-24 19:35 40.36397 -75.77086 31696 ft 449 kts 246°
2026-04-24 19:35 40.34780 -75.80579 32035 ft 449 kts 246°
2026-04-24 19:35 40.33154 -75.84088 32277 ft 451 kts 246°
2026-04-24 19:36 40.31518 -75.87598 32611 ft 451 kts 246°
2026-04-24 19:36 40.29884 -75.91088 33070 ft 448 kts 246°
2026-04-24 19:36 40.28257 -75.94553 33559 ft 445 kts 246°
2026-04-24 19:36 40.26637 -75.98005 33834 ft 446 kts 246°
2026-04-24 19:37 40.25010 -76.01479 33841 ft 449 kts 246°
2026-04-24 19:37 40.21752 -76.08417 33845 ft 445 kts 246°
2026-04-24 19:38 40.18513 -76.15296 33829 ft 443 kts 246°
2026-04-24 19:38 40.15291 -76.22133 33852 ft 441 kts 246°
2026-04-24 19:39 40.12065 -76.28960 33849 ft 442 kts 246°
2026-04-24 19:39 40.08884 -76.35828 33837 ft 442 kts 246°
2026-04-24 19:40 40.05716 -76.42737 33864 ft 444 kts 246°
2026-04-24 19:40 40.02516 -76.49665 33855 ft 447 kts 246°
2026-04-24 19:41 39.99299 -76.56611 33859 ft 449 kts 245°
2026-04-24 19:41 39.96085 -76.63543 33863 ft 451 kts 245°
2026-04-24 19:42 39.92833 -76.70543 33866 ft 452 kts 245°
2026-04-24 19:42 39.89562 -76.77547 33877 ft 453 kts 245°
2026-04-24 19:43 39.86279 -76.84556 33868 ft 453 kts 245°
2026-04-24 19:43 39.82993 -76.91559 33854 ft 452 kts 245°
2026-04-24 19:44 39.79712 -76.98539 33866 ft 452 kts 245°
2026-04-24 19:44 39.76433 -77.05501 33866 ft 451 kts 245°
2026-04-24 19:45 39.73162 -77.12432 33865 ft 449 kts 244°
2026-04-24 19:45 39.69897 -77.19338 33869 ft 448 kts 244°
2026-04-24 19:46 39.66659 -77.26165 33853 ft 446 kts 244°
2026-04-24 19:46 39.63404 -77.33016 33859 ft 445 kts 244°
2026-04-24 19:47 39.60155 -77.39845 33854 ft 445 kts 244°
2026-04-24 19:47 39.56905 -77.46663 33830 ft 444 kts 244°
2026-04-24 19:48 39.53654 -77.53469 33845 ft 444 kts 244°
2026-04-24 19:48 39.48766 -77.63675 33861 ft 444 kts 244°
2026-04-24 19:49 39.42226 -77.77279 33830 ft 445 kts 243°
2026-04-24 19:50 39.36003 -77.91075 33804 ft 442 kts 248°
2026-04-24 19:51 39.31877 -78.01648 33809 ft 441 kts 248°
2026-04-24 19:52 39.27688 -78.12224 33814 ft 441 kts 248°
2026-04-24 19:52 39.24858 -78.19300 33830 ft 441 kts 248°
2026-04-24 19:53 39.22062 -78.26270 33825 ft 441 kts 248°
2026-04-24 19:54 39.17833 -78.36789 33818 ft 440 kts 247°
2026-04-24 19:54 39.15011 -78.43786 33824 ft 440 kts 247°
2026-04-24 19:55 39.12642 -78.49651 33821 ft 441 kts 247°
2026-04-24 19:55 39.09350 -78.57782 33819 ft 441 kts 247°
2026-04-24 19:56 39.06512 -78.64773 33813 ft 441 kts 247°
2026-04-24 19:56 39.03670 -78.71759 33816 ft 440 kts 246°
2026-04-24 19:57 39.00826 -78.78736 33824 ft 440 kts 246°
2026-04-24 19:57 38.97977 -78.85710 33846 ft 441 kts 246°
2026-04-24 19:58 38.95119 -78.92686 33843 ft 441 kts 246°
2026-04-24 19:58 38.92252 -78.99669 33862 ft 442 kts 246°
2026-04-24 19:59 38.89380 -79.06655 33834 ft 442 kts 246°
2026-04-24 19:59 38.86502 -79.13639 33871 ft 443 kts 245°
2026-04-24 20:00 38.83816 -79.20734 33864 ft 440 kts 254°
2026-04-24 20:00 38.82366 -79.28314 33886 ft 438 kts 260°
2026-04-24 20:01 38.81063 -79.35899 33887 ft 439 kts 260°
2026-04-24 20:01 38.79714 -79.43536 33878 ft 439 kts 259°
2026-04-24 20:02 38.78562 -79.49928 33899 ft 440 kts 259°
2026-04-24 20:02 38.76948 -79.58806 33904 ft 440 kts 259°
2026-04-24 20:03 38.75554 -79.66445 33919 ft 441 kts 259°
2026-04-24 20:03 38.74152 -79.74094 33910 ft 441 kts 259°
2026-04-24 20:04 38.72747 -79.81738 33910 ft 441 kts 259°
2026-04-24 20:04 38.71337 -79.89376 33920 ft 440 kts 259°
2026-04-24 20:05 38.69924 -79.97003 33915 ft 441 kts 259°
2026-04-24 20:05 38.68504 -80.04634 33910 ft 440 kts 259°
2026-04-24 20:06 38.67083 -80.12251 33915 ft 440 kts 259°
2026-04-24 20:06 38.65665 -80.19819 33896 ft 441 kts 258°
2026-04-24 20:07 38.64461 -80.26215 33903 ft 441 kts 258°
2026-04-24 20:07 38.62786 -80.35091 33898 ft 442 kts 258°
2026-04-24 20:08 38.61338 -80.42734 33895 ft 443 kts 258°
2026-04-24 20:08 38.59883 -80.50384 33882 ft 443 kts 258°
2026-04-24 20:09 38.58423 -80.58036 33874 ft 443 kts 258°
2026-04-24 20:09 38.56956 -80.65693 33871 ft 444 kts 258°
2026-04-24 20:10 38.55483 -80.73354 33877 ft 444 kts 258°
2026-04-24 20:10 38.54002 -80.81024 33872 ft 445 kts 258°
2026-04-24 20:11 38.52514 -80.88700 33863 ft 445 kts 258°
2026-04-24 20:11 38.51020 -80.96378 33866 ft 446 kts 258°
2026-04-24 20:12 38.49531 -81.04005 33876 ft 446 kts 258°
2026-04-24 20:12 38.48024 -81.11694 33878 ft 447 kts 258°
2026-04-24 20:13 38.46512 -81.19383 33881 ft 447 kts 258°
2026-04-24 20:13 38.44994 -81.27073 33876 ft 447 kts 258°
2026-04-24 20:14 38.43470 -81.34761 33875 ft 447 kts 257°
2026-04-24 20:14 38.41941 -81.42445 33876 ft 447 kts 257°
2026-04-24 20:15 38.40408 -81.50127 33880 ft 447 kts 257°
2026-04-24 20:15 38.38871 -81.57798 33891 ft 447 kts 257°
2026-04-24 20:16 38.37325 -81.65485 33884 ft 447 kts 257°
2026-04-24 20:16 38.35780 -81.73144 33881 ft 446 kts 257°
2026-04-24 20:17 38.34081 -81.80750 33886 ft 447 kts 253°
2026-04-24 20:17 38.30862 -81.91912 33880 ft 448 kts 251°
2026-04-24 20:18 38.28716 -81.99350 33871 ft 448 kts 252°
2026-04-24 20:18 38.26600 -82.06811 33867 ft 448 kts 252°
2026-04-24 20:19 38.24490 -82.14267 33870 ft 448 kts 252°
2026-04-24 20:19 38.22372 -82.21724 33870 ft 448 kts 252°
2026-04-24 20:20 38.20606 -82.27923 33866 ft 449 kts 252°
2026-04-24 20:20 38.18477 -82.35378 33865 ft 449 kts 252°
2026-04-24 20:21 38.16348 -82.42834 33857 ft 448 kts 253°
2026-04-24 20:21 38.14219 -82.50278 33868 ft 448 kts 253°
2026-04-24 20:22 38.12085 -82.57719 33868 ft 448 kts 253°
2026-04-24 20:22 38.09963 -82.65098 33864 ft 448 kts 252°
2026-04-24 20:23 38.07824 -82.72516 33867 ft 447 kts 252°
2026-04-24 20:23 38.05680 -82.79928 33859 ft 447 kts 253°
2026-04-24 20:24 38.03534 -82.87330 33867 ft 447 kts 253°
2026-04-24 20:24 38.01386 -82.94715 33870 ft 446 kts 253°
2026-04-24 20:25 37.99238 -83.02083 33872 ft 446 kts 253°
2026-04-24 20:25 37.97084 -83.09451 33872 ft 445 kts 253°
2026-04-24 20:26 37.94927 -83.16806 33864 ft 446 kts 253°
2026-04-24 20:26 37.92765 -83.24163 33881 ft 446 kts 253°
2026-04-24 20:27 37.90593 -83.31530 33884 ft 447 kts 253°
2026-04-24 20:27 37.88412 -83.38910 33883 ft 448 kts 253°
2026-04-24 20:28 37.86224 -83.46294 33877 ft 448 kts 253°
2026-04-24 20:28 37.84029 -83.53681 33867 ft 449 kts 253°
2026-04-24 20:29 37.81827 -83.61073 33870 ft 449 kts 253°
2026-04-24 20:29 37.79620 -83.68457 33871 ft 449 kts 253°
2026-04-24 20:30 37.77410 -83.75837 33872 ft 449 kts 253°
2026-04-24 20:30 37.75192 -83.83221 33877 ft 449 kts 253°
2026-04-24 20:31 37.72971 -83.90598 33876 ft 449 kts 253°
2026-04-24 20:31 37.70763 -83.97913 33880 ft 449 kts 252°
2026-04-24 20:32 37.68538 -84.05264 33894 ft 447 kts 252°
2026-04-24 20:32 37.66216 -84.12533 33893 ft 449 kts 245°
2026-04-24 20:33 37.62508 -84.18904 33906 ft 455 kts 227°
2026-04-24 20:33 37.57732 -84.24174 33916 ft 456 kts 224°
2026-04-24 20:34 37.52891 -84.29350 33906 ft 456 kts 224°
2026-04-24 20:34 37.48080 -84.34550 33902 ft 455 kts 224°
2026-04-24 20:35 37.43303 -84.39746 33881 ft 453 kts 224°
2026-04-24 20:35 37.38549 -84.44933 33888 ft 451 kts 224°
2026-04-24 20:36 37.33903 -84.49984 33377 ft 435 kts 224°
2026-04-24 20:36 37.31605 -84.52482 32497 ft 439 kts 224°
2026-04-24 20:36 37.29283 -84.55005 31724 ft 442 kts 223°
2026-04-24 20:37 37.26956 -84.57529 31167 ft 440 kts 223°
2026-04-24 20:37 37.24646 -84.60030 30700 ft 436 kts 223°
2026-04-24 20:37 37.22355 -84.62509 30101 ft 435 kts 223°
2026-04-24 20:37 37.20038 -84.65015 29077 ft 443 kts 223°
2026-04-24 20:38 37.17701 -84.67541 28350 ft 443 kts 223°
2026-04-24 20:38 37.15382 -84.70043 27908 ft 436 kts 223°
2026-04-24 20:38 37.13104 -84.72498 27481 ft 428 kts 223°
2026-04-24 20:38 37.10889 -84.74886 26972 ft 424 kts 223°
2026-04-24 20:39 37.08662 -84.77285 26412 ft 421 kts 223°
2026-04-24 20:39 37.06450 -84.79666 25909 ft 417 kts 223°
2026-04-24 20:39 37.04263 -84.82017 25457 ft 412 kts 223°
2026-04-24 20:39 37.02224 -84.84483 25008 ft 404 kts 236°
2026-04-24 20:40 37.00754 -84.87446 24574 ft 397 kts 242°
2026-04-24 20:40 36.99363 -84.90412 24111 ft 394 kts 241°
2026-04-24 20:40 36.97972 -84.93342 23663 ft 390 kts 241°
2026-04-24 20:40 36.96582 -84.96240 23160 ft 387 kts 240°
2026-04-24 20:41 36.95194 -84.99107 22991 ft 385 kts 240°
2026-04-24 20:41 36.93795 -85.01987 22954 ft 390 kts 240°
2026-04-24 20:41 36.92388 -85.04874 22931 ft 387 kts 240°
2026-04-24 20:41 36.90994 -85.07727 22918 ft 383 kts 240°
2026-04-24 20:42 36.89603 -85.10571 22915 ft 383 kts 240°
2026-04-24 20:42 36.88209 -85.13420 22914 ft 386 kts 240°
2026-04-24 20:42 36.86805 -85.16289 22914 ft 388 kts 240°
2026-04-24 20:42 36.85395 -85.19164 22900 ft 385 kts 240°
2026-04-24 20:43 36.84010 -85.21985 22599 ft 378 kts 240°
2026-04-24 20:43 36.82660 -85.24735 22116 ft 375 kts 240°
2026-04-24 20:43 36.81294 -85.27514 21956 ft 366 kts 241°
2026-04-24 20:43 36.79961 -85.30227 21917 ft 371 kts 240°
2026-04-24 20:44 36.78614 -85.32970 21917 ft 380 kts 240°
2026-04-24 20:44 36.77224 -85.35793 21907 ft 382 kts 240°
2026-04-24 20:44 36.75839 -85.38602 21889 ft 380 kts 240°
2026-04-24 20:44 36.74462 -85.41402 21905 ft 378 kts 241°
2026-04-24 20:45 36.73121 -85.44217 21900 ft 377 kts 242°
2026-04-24 20:45 36.71803 -85.47031 21907 ft 375 kts 242°
2026-04-24 20:45 36.70492 -85.49839 21900 ft 375 kts 242°
2026-04-24 20:45 36.69179 -85.52647 21903 ft 374 kts 242°
2026-04-24 20:46 36.67865 -85.55447 21906 ft 374 kts 242°
2026-04-24 20:46 36.66547 -85.58248 21905 ft 375 kts 242°
2026-04-24 20:46 36.65235 -85.61031 21727 ft 368 kts 242°
2026-04-24 20:46 36.63944 -85.63765 21087 ft 365 kts 242°
2026-04-24 20:47 36.62658 -85.66486 20311 ft 365 kts 242°
2026-04-24 20:47 36.61373 -85.69205 19597 ft 363 kts 242°
2026-04-24 20:47 36.60097 -85.71900 18993 ft 359 kts 242°
2026-04-24 20:47 36.58841 -85.74551 18417 ft 354 kts 242°
2026-04-24 20:48 36.57597 -85.77174 17760 ft 349 kts 242°
2026-04-24 20:48 36.56367 -85.79766 17074 ft 346 kts 242°
2026-04-24 20:48 36.55149 -85.82331 16402 ft 343 kts 242°
2026-04-24 20:48 36.53930 -85.84897 15837 ft 345 kts 241°
2026-04-24 20:49 36.52718 -85.87447 15435 ft 341 kts 241°
2026-04-24 20:49 36.51520 -85.89964 15042 ft 336 kts 241°
2026-04-24 20:49 36.50332 -85.92459 14611 ft 334 kts 241°
2026-04-24 20:49 36.49165 -85.94908 14164 ft 333 kts 240°
2026-04-24 20:50 36.47974 -85.97405 13787 ft 330 kts 240°
2026-04-24 20:50 36.46825 -85.99812 13338 ft 328 kts 240°
2026-04-24 20:50 36.45664 -86.02242 12861 ft 326 kts 240°
2026-04-24 20:50 36.44512 -86.04651 12492 ft 321 kts 240°
2026-04-24 20:51 36.43375 -86.07028 12092 ft 320 kts 240°
2026-04-24 20:51 36.42233 -86.09412 11742 ft 322 kts 240°
2026-04-24 20:51 36.41088 -86.11799 11369 ft 322 kts 239°
2026-04-24 20:51 36.40055 -86.14252 10978 ft 319 kts 252°
2026-04-24 20:52 36.39791 -86.16934 10615 ft 309 kts 271°
2026-04-24 20:52 36.40184 -86.19510 10253 ft 300 kts 285°
2026-04-24 20:52 36.40837 -86.21917 9984 ft 287 kts 287°
2026-04-24 20:52 36.41492 -86.24193 9706 ft 276 kts 287°
2026-04-24 20:53 36.42142 -86.26436 9187 ft 275 kts 287°
2026-04-24 20:53 36.42793 -86.28659 8670 ft 273 kts 287°
2026-04-24 20:53 36.43443 -86.30871 8133 ft 273 kts 287°
2026-04-24 20:53 36.44091 -86.33083 7624 ft 272 kts 287°
2026-04-24 20:54 36.44526 -86.35339 7131 ft 267 kts 270°
2026-04-24 20:54 36.44525 -86.37631 6695 ft 263 kts 266°
2026-04-24 20:54 36.44465 -86.39853 6273 ft 259 kts 265°
2026-04-24 20:54 36.44396 -86.42125 5715 ft 260 kts 264°
2026-04-24 20:55 36.43991 -86.44270 5231 ft 255 kts 240°
2026-04-24 20:55 36.42917 -86.46001 4752 ft 253 kts 227°
2026-04-24 20:55 36.41703 -86.47571 4259 ft 252 kts 226°
2026-04-24 20:55 36.40477 -86.49115 3797 ft 250 kts 225°
2026-04-24 20:56 36.39305 -86.50592 3689 ft 235 kts 226°
2026-04-24 20:56 36.38186 -86.51992 3585 ft 220 kts 225°
2026-04-24 20:56 36.37149 -86.53297 3361 ft 207 kts 225°
2026-04-24 20:56 36.36140 -86.54558 3082 ft 206 kts 225°
2026-04-24 20:57 36.35117 -86.55831 3044 ft 210 kts 225°
2026-04-24 20:57 36.34090 -86.57116 3019 ft 209 kts 225°
2026-04-24 20:57 36.32893 -86.58058 3001 ft 205 kts 198°
2026-04-24 20:57 36.31516 -86.58524 2998 ft 206 kts 204°
2026-04-24 20:58 36.30181 -86.59165 3016 ft 206 kts 203°
2026-04-24 20:58 36.28824 -86.59733 2998 ft 204 kts 202°
2026-04-24 20:58 36.27529 -86.60253 2981 ft 185 kts 202°
2026-04-24 20:58 36.26340 -86.60731 2997 ft 175 kts 201°
2026-04-24 20:59 36.25207 -86.61186 2920 ft 168 kts 202°
2026-04-24 20:59 36.24098 -86.61633 2719 ft 168 kts 201°
2026-04-24 20:59 36.23003 -86.62069 2504 ft 163 kts 203°
2026-04-24 20:59 36.21922 -86.62502 2308 ft 167 kts 202°
2026-04-24 21:00 36.20813 -86.62947 2067 ft 163 kts 204°
2026-04-24 21:00 36.19783 -86.63358 1890 ft 149 kts 202°
2026-04-24 21:00 36.18830 -86.63737 1691 ft 139 kts 204°
2026-04-24 21:00 36.17907 -86.64113 1466 ft 138 kts 201°
2026-04-24 21:01 36.16994 -86.64482 1316 ft 138 kts 201°
2026-04-24 21:01 36.16090 -86.64831 1170 ft 135 kts 200°
2026-04-24 21:01 36.15221 -86.65182 1005 ft 131 kts 199°
2026-04-24 21:01 36.14358 -86.65534 833 ft 131 kts 198°
2026-04-24 21:02 36.13503 -86.65871 621 ft 126 kts 198°
2026-04-24 21:02 36.12724 -86.66184 569 ft 101 kts 198°
2026-04-24 21:02 36.12192 -86.66396 577 ft 60 kts 198°
2026-04-24 21:02 36.11936 -86.66499 580 ft 17 kts 198°
2026-04-24 21:03 36.11848 -86.66552 583 ft 14 kts 235°
2026-04-24 21:03 36.11866 -86.66652 583 ft 10 kts 328°
2026-04-24 21:03 36.11879 -86.66657 583 ft 0 kts 348°
2026-04-24 21:03 36.11881 -86.66658 583 ft 1 kts 350°
2026-04-24 21:04 36.11895 -86.66656 582 ft 3 kts
2026-04-24 21:04 36.11927 -86.66646 582 ft 6 kts 16°
2026-04-24 21:04 36.11975 -86.66627 581 ft 9 kts 18°
2026-04-24 21:04 36.12045 -86.66599 582 ft 13 kts 18°
2026-04-24 21:05 36.12147 -86.66558 574 ft 16 kts 18°
2026-04-24 21:05 36.12257 -86.66532 570 ft 13 kts 339°
2026-04-24 21:05 36.12302 -86.66625 574 ft 13 kts 288°
2026-04-24 21:05 36.12333 -86.66741 579 ft 16 kts 288°
2026-04-24 21:06 36.12389 -86.66877 577 ft 19 kts 311°
2026-04-24 21:06 36.12464 -86.66950 580 ft 13 kts 351°
2026-04-24 21:06 36.12541 -86.66914 572 ft 3 kts 30°
2026-04-24 21:06 36.12563 -86.66898 576 ft 3 kts 31°
2026-04-24 21:07 36.12577 -86.66887 570 ft 0 kts 30°
2026-04-24 21:07 36.12583 -86.66883 570 ft 2 kts 27°
2026-04-24 21:07 36.12621 -86.66881 573 ft 2 kts 343°
2026-04-24 21:07 36.12634 -86.66890 572 ft 2 kts 327°
2026-04-24 21:08 36.12641 -86.66897 572 ft 2 kts 320°
2026-04-24 21:08 36.12651 -86.66908 570 ft 2 kts 316°
2026-04-24 21:08 36.12683 -86.66951 573 ft 12 kts 312°
2026-04-24 21:08 36.12748 -86.67039 574 ft 15 kts 312°
2026-04-24 21:09 36.12817 -86.67140 574 ft 15 kts 308°
2026-04-24 21:09 36.12885 -86.67237 572 ft 15 kts 317°
2026-04-24 21:09 36.12965 -86.67320 566 ft 16 kts 322°
2026-04-24 21:09 36.13059 -86.67376 570 ft 15 kts 353°
2026-04-24 21:10 36.13157 -86.67370 572 ft 8 kts
2026-04-24 21:10 36.13190 -86.67325 566 ft 7 kts 84°
2026-04-24 21:10 36.13188 -86.67263 566 ft 7 kts 73°
2026-04-24 21:10 36.13214 -86.67222 570 ft 6 kts 47°
2026-04-24 21:11 36.13228 -86.67204 573 ft 0 kts 47°
2026-04-24 21:11 36.13228 -86.67203 573 ft 0 kts 47°